Regional Weather Roundup
Issued by NWS

Home | Current Version | Previous Version | Text Only | Print | Product List | Glossary On
Versions: 1 2 3 4 5 6 7 8 9 10 11 12 13 14 15 16 17 18 19 20 21 22 23 24 25 26 27 28
000
ASUS44 KLIX 242311
RWRLA
LOUISIANA WEATHER ROUNDUP
NATIONAL WEATHER SERVICE NEW ORLEANS LA
600 PM CDT SAT SEP 24 2016

NOTE: "FAIR" INDICATES FEW OR NO CLOUDS BELOW 12,000 FEET WITH NO
      SIGNIFICANT WEATHER AND/OR OBSTRUCTIONS TO VISIBILITY.
      SKY/WX - SKY CONDITION AND SIGNIFICANT WEATHER.
      TMP - AIR TEMPERATURE.    DP   - DEWPOINT TEMPERATURE.
      RH  - RELATIVE HUMIDITY.  PRES - PRESSURE.
      HX  - HEAT INDEX.         WCI  - WIND CHILL INDEX.

*  THESE STATIONS ARE NOT NWS OR FAA STATIONS AND ARE NOT UNDER
   NWS QUALITY CONTROL.

LAZ040-048-061>063-065-066-069-250000-
SOUTHEAST LOUISIANA

CITY           SKY/WX    TMP DP  RH WIND       PRES   REMARKS
N.O. AUDUBON   NOT AVBL
N.O. INTL ARPT PTSUNNY   84  74  71 CALM      29.99F
N.O. LAKEFRONT MOSUNNY   88  71  57 S6        30.00S
N.O. DOWNTOWN*   N/A     88  72  58 VRB6      30.00S
RESERVE*       FAIR      84  69  60 CALM      29.99F
SLIDELL        MOSUNNY   88  71  57 CALM      29.99R
BATON ROUGE    MOSUNNY   84  71  65 SW7       30.00R
BOOTHVILLE     PTSUNNY   82  75  79 CALM      30.00F
BELLE CHASSE   MOSUNNY   84  71  65 S7        29.99S
BOGALUSA*      FAIR      91  67  43 S5        30.00S
GALLIANO*      NOT AVBL
NEW ROADS*     FAIR      87  67  51 MISG      29.99S
GONZALES*      FAIR      81  74  78 CALM      29.99S
HAMMOND*       SUNNY     90  61  37 S5        29.99S
HOUMA*         MOSUNNY   84  75  74 S9        29.99
PORT FOURCHON* PTCLDY    86  73  66 SE8       30.00S

$$

LAZ041-044-053-054-250000-
SOUTHWEST LOUISIANA

CITY           SKY/WX    TMP DP  RH WIND       PRES   REMARKS
LAKE CHARLES   MOSUNNY   82  76  81 S3        29.97F
LAFAYETTE      MOSUNNY   87  72  60 CALM      29.99F
PATTERSON      SUNNY     84  73  69 S5        30.00R
SALT POINT     NOT AVBL
NEW IBERIA     MOSUNNY   86  71  60 S10       29.99S
CHENAULT AIRPK NOT AVBL

$$

LAZ027-028-250000-
CENTRAL LOUISIANA

CITY           SKY/WX    TMP DP  RH WIND       PRES   REMARKS
FORT POLK      MOSUNNY   89  69  50 SE10      29.97F
ALEXANDRIA INT SUNNY     90  68  48 S7        29.96F
ALEXANDRIA     SUNNY     90  71  53 S3        29.98F HX  96

$$

LAZ001-002-250000-
NORTHWEST LOUISIANA

CITY           SKY/WX    TMP DP  RH WIND       PRES   REMARKS
SHREVEPORT     MOSUNNY   90  69  50 SE10      29.96S
BARKSDALE AFB  SUNNY     90  69  49 SE8       29.96F
DTN SHREVEPORT SUNNY     90  68  48 SE10      29.96S

$$

LAZ014-016-250000-
NORTHEAST LOUISIANA

CITY           SKY/WX    TMP DP  RH WIND       PRES   REMARKS
MONROE         MOSUNNY   87  71  58 CALM      29.98S
TALLULAH       SUNNY     89  66  46 VRB5      29.98S

$$





USA.gov is the U.S. government's official web portal to all federal, state and local government web resources and services.